Time,TemperatureF,DewpointF,PressureIn,WindDirection,WindDirectionDegrees,WindSpeedMPH,WindSpeedGustMPH,Humidity,HourlyPrecipIn,Conditions,Clouds,dailyrainin,SoftwareType,DateUTC
2013-04-28 00:00:00,56.6,53.7,30.24,SW,233,0.0,0.0,90,0.00,,OVC100,0.00,VWS V14.01,2013-04-28 04:00:00,
2013-04-28 00:01:00,56.6,53.7,30.24,SW,233,0.0,0.0,90,0.00,,-RA,0.00,VWS V14.01,2013-04-28 04:01:00,
2013-04-28 00:06:00,56.5,53.6,30.24,SW,233,0.0,0.0,90,0.00,,-RA,0.00,VWS V14.01,2013-04-28 04:06:00,
2013-04-28 00:11:00,56.4,53.8,30.24,SW,233,0.0,0.0,91,0.00,,-RA,0.00,VWS V14.01,2013-04-28 04:11:00,
2013-04-28 00:16:00,56.3,53.7,30.24,SW,233,0.0,0.0,91,0.00,,-RA,0.00,VWS V14.01,2013-04-28 04:16:00,
2013-04-28 00:21:00,56.3,54.0,30.24,SW,233,0.0,0.0,92,0.00,,-RA,0.00,VWS V14.01,2013-04-28 04:21:00,
2013-04-28 00:26:00,56.3,54.0,30.24,SW,233,0.0,0.0,92,0.00,,-RA,0.00,VWS V14.01,2013-04-28 04:26:00,
2013-04-28 00:30:00,56.2,53.9,30.24,SW,233,0.0,0.0,92,0.00,,OVC044,0.00,VWS V14.01,2013-04-28 04:30:00,
2013-04-28 00:31:00,56.2,53.9,30.24,SW,233,0.0,0.0,92,0.00,,-RA,0.00,VWS V14.01,2013-04-28 04:31:00,
2013-04-28 00:36:00,56.2,53.9,30.24,SW,233,0.0,0.0,92,0.00,,-RA,0.00,VWS V14.01,2013-04-28 04:36:00,
2013-04-28 00:41:00,56.1,54.1,30.23,SW,233,0.0,0.0,93,0.00,,-RA,0.00,VWS V14.01,2013-04-28 04:41:00,
2013-04-28 00:46:00,56.0,54.0,30.23,SW,233,0.0,0.0,93,0.00,,-RA,0.00,VWS V14.01,2013-04-28 04:46:00,
2013-04-28 00:51:00,56.0,54.0,30.23,SW,233,0.0,0.0,93,0.00,,-RA,0.00,VWS V14.01,2013-04-28 04:51:00,
2013-04-28 00:56:00,55.9,53.9,30.23,SW,233,0.0,0.0,93,0.00,,-RA,0.00,VWS V14.01,2013-04-28 04:56:00,
2013-04-28 01:00:00,55.9,53.9,30.23,SW,233,0.0,0.0,93,0.00,,OVC044,0.00,VWS V14.01,2013-04-28 05:00:00,
2013-04-28 01:01:00,55.8,53.8,30.23,SW,233,0.0,0.0,93,0.00,,OVC090,0.00,VWS V14.01,2013-04-28 05:01:00,
2013-04-28 01:06:00,55.6,53.6,30.23,SW,233,0.0,0.0,93,0.00,,OVC090,0.00,VWS V14.01,2013-04-28 05:06:00,
2013-04-28 01:11:00,55.5,53.8,30.23,SW,233,0.0,0.0,94,0.00,,OVC090,0.00,VWS V14.01,2013-04-28 05:11:00,
2013-04-28 01:16:00,55.4,53.7,30.23,SW,233,0.0,0.0,94,0.00,,OVC090,0.00,VWS V14.01,2013-04-28 05:16:00,
2013-04-28 01:21:00,55.3,53.6,30.23,SW,233,0.0,0.0,94,0.00,,OVC090,0.00,VWS V14.01,2013-04-28 05:21:00,
2013-04-28 01:26:00,55.2,53.5,30.23,SW,233,0.0,0.0,94,0.00,,OVC090,0.00,VWS V14.01,2013-04-28 05:26:00,
2013-04-28 01:30:00,55.1,53.4,30.23,SW,233,0.0,0.0,94,0.00,,OVC044,0.00,VWS V14.01,2013-04-28 05:30:00,
2013-04-28 01:31:00,55.0,53.3,30.23,SW,233,0.0,0.0,94,0.00,,OVC090,0.00,VWS V14.01,2013-04-28 05:31:00,
2013-04-28 01:36:00,54.9,53.2,30.23,SW,233,0.0,0.0,94,0.00,,OVC090,0.00,VWS V14.01,2013-04-28 05:36:00,
2013-04-28 01:41:00,54.8,53.4,30.22,SW,233,0.0,0.0,95,0.00,,OVC090,0.00,VWS V14.01,2013-04-28 05:41:00,
2013-04-28 01:46:00,54.9,53.5,30.22,SW,233,0.0,0.0,95,0.00,,OVC090,0.00,VWS V14.01,2013-04-28 05:46:00,
2013-04-28 01:51:00,54.9,53.5,30.22,SW,233,0.0,0.0,95,0.00,,OVC090,0.00,VWS V14.01,2013-04-28 05:51:00,
2013-04-28 01:56:00,54.9,53.5,30.22,SW,233,0.0,0.0,95,0.00,,OVC090,0.00,VWS V14.01,2013-04-28 05:56:00,
2013-04-28 02:00:00,54.9,53.5,30.22,SW,233,0.0,0.0,95,0.00,,OVC044,0.00,VWS V14.01,2013-04-28 06:00:00,
2013-04-28 02:01:00,54.8,53.4,30.22,SW,233,0.0,0.0,95,0.00,,OVC080,0.00,VWS V14.01,2013-04-28 06:01:00,
2013-04-28 02:06:00,54.7,53.3,30.21,SW,233,0.0,0.0,95,0.00,,OVC080,0.00,VWS V14.01,2013-04-28 06:06:00,
2013-04-28 02:11:00,54.6,53.2,30.21,SW,233,0.0,0.0,95,0.00,,OVC080,0.00,VWS V14.01,2013-04-28 06:11:00,
2013-04-28 02:16:00,54.6,53.5,30.21,SW,233,0.0,0.0,96,0.00,,OVC080,0.00,VWS V14.01,2013-04-28 06:16:00,
2013-04-28 02:21:00,54.7,53.6,30.21,SW,233,0.0,0.0,96,0.00,,OVC080,0.00,VWS V14.01,2013-04-28 06:21:00,
2013-04-28 02:26:00,54.7,53.6,30.21,SW,233,0.0,0.0,96,0.00,,OVC080,0.00,VWS V14.01,2013-04-28 06:26:00,
2013-04-28 02:30:00,54.7,53.6,30.21,SW,233,0.0,0.0,96,0.00,,OVC044,0.00,VWS V14.01,2013-04-28 06:30:00,
2013-04-28 02:31:00,54.7,53.6,30.21,SW,233,0.0,0.0,96,0.00,,OVC080,0.00,VWS V14.01,2013-04-28 06:31:00,
2013-04-28 02:36:00,54.7,53.6,30.20,SW,233,0.0,0.0,96,0.00,,OVC080,0.00,VWS V14.01,2013-04-28 06:36:00,
2013-04-28 02:41:00,54.6,53.5,30.20,SW,233,0.0,0.0,96,0.00,,OVC080,0.00,VWS V14.01,2013-04-28 06:41:00,
2013-04-28 02:46:00,54.5,53.1,30.20,SW,233,0.0,0.0,95,0.00,,OVC080,0.00,VWS V14.01,2013-04-28 06:46:00,
2013-04-28 02:51:00,54.4,53.0,30.20,SW,233,0.0,0.0,95,0.00,,OVC080,0.00,VWS V14.01,2013-04-28 06:51:00,
2013-04-28 02:56:00,54.4,53.3,30.20,SW,233,0.0,0.0,96,0.00,,OVC080,0.00,VWS V14.01,2013-04-28 06:56:00,
2013-04-28 03:00:00,54.5,53.4,30.20,SW,233,0.0,0.0,96,0.00,,OVC044,0.00,VWS V14.01,2013-04-28 07:00:00,
2013-04-28 03:01:00,54.5,53.4,30.20,SW,233,0.0,1.0,96,0.00,,,0.00,VWS V14.01,2013-04-28 07:01:00,
2013-04-28 03:06:00,54.5,53.4,30.19,SW,232,0.0,1.0,96,0.00,,,0.00,VWS V14.01,2013-04-28 07:06:00,
2013-04-28 03:11:00,54.6,53.5,30.20,SW,232,0.0,1.0,96,0.01,,,0.01,VWS V14.01,2013-04-28 07:11:00,
2013-04-28 03:16:00,54.6,53.5,30.20,SW,232,0.0,1.0,96,0.01,,,0.01,VWS V14.01,2013-04-28 07:16:00,
2013-04-28 03:21:00,54.5,53.4,30.20,SW,232,0.0,1.0,96,0.01,,,0.01,VWS V14.01,2013-04-28 07:21:00,
2013-04-28 03:26:00,54.5,53.4,30.20,SW,232,0.0,1.0,96,0.01,,,0.01,VWS V14.01,2013-04-28 07:26:00,
2013-04-28 03:30:00,54.5,53.4,30.20,ESE,123,0.0,2.0,96,0.01,,OVC044,0.01,VWS V14.01,2013-04-28 07:30:00,
2013-04-28 03:31:00,54.5,53.4,30.20,ESE,123,0.0,0.0,96,0.01,,,0.01,VWS V14.01,2013-04-28 07:31:00,
2013-04-28 03:36:00,54.6,53.5,30.20,East,99,0.0,1.0,96,0.01,,,0.01,VWS V14.01,2013-04-28 07:36:00,
2013-04-28 03:41:00,54.7,53.6,30.20,ESE,103,0.0,1.0,96,0.01,,,0.01,VWS V14.01,2013-04-28 07:41:00,
2013-04-28 03:46:00,54.7,53.6,30.20,ESE,103,0.0,1.0,96,0.01,,,0.01,VWS V14.01,2013-04-28 07:46:00,
2013-04-28 03:51:00,54.7,53.6,30.20,ESE,103,0.0,1.0,96,0.01,,,0.01,VWS V14.01,2013-04-28 07:51:00,
2013-04-28 03:56:00,54.7,53.6,30.19,ESE,108,1.0,2.0,96,0.01,,,0.01,VWS V14.01,2013-04-28 07:56:00,
2013-04-28 04:00:00,54.6,53.5,30.19,ESE,108,0.0,2.0,96,0.01,,OVC044,0.01,VWS V14.01,2013-04-28 08:00:00,
2013-04-28 04:01:00,54.6,53.5,30.19,ESE,107,1.0,2.0,96,0.01,,OVC100,0.01,VWS V14.01,2013-04-28 08:01:00,
2013-04-28 04:06:00,54.6,53.5,30.19,ESE,107,0.0,2.0,96,0.01,,OVC100,0.01,VWS V14.01,2013-04-28 08:06:00,
2013-04-28 04:11:00,54.6,53.5,30.19,SE,146,0.0,2.0,96,0.01,,OVC100,0.01,VWS V14.01,2013-04-28 08:11:00,
2013-04-28 04:16:00,54.5,53.4,30.19,ESE,115,0.0,2.0,96,0.01,,OVC100,0.01,VWS V14.01,2013-04-28 08:16:00,
2013-04-28 04:22:00,54.5,53.4,30.19,ESE,115,0.0,2.0,96,0.01,,OVC100,0.01,VWS V14.01,2013-04-28 08:22:00,
2013-04-28 04:27:00,54.4,53.3,30.19,ESE,115,0.0,2.0,96,0.01,,OVC100,0.01,VWS V14.01,2013-04-28 08:27:00,
2013-04-28 04:30:00,54.4,53.3,30.19,ESE,116,0.0,2.0,96,0.01,,OVC044,0.01,VWS V14.01,2013-04-28 08:30:00,
2013-04-28 04:32:00,54.4,53.3,30.19,ESE,116,1.0,1.0,96,0.00,,OVC100,0.01,VWS V14.01,2013-04-28 08:32:00,
2013-04-28 04:37:00,54.6,53.5,30.19,ESE,119,0.0,2.0,96,0.00,,OVC100,0.01,VWS V14.01,2013-04-28 08:37:00,
2013-04-28 04:42:00,54.6,53.5,30.19,ESE,119,0.0,2.0,96,0.00,,OVC100,0.01,VWS V14.01,2013-04-28 08:42:00,
2013-04-28 04:46:00,54.5,53.4,30.19,ESE,119,0.0,2.0,96,0.00,,OVC100,0.01,VWS V14.01,2013-04-28 08:46:00,
2013-04-28 04:51:00,54.4,53.3,30.19,ESE,119,0.0,2.0,96,0.00,,OVC100,0.01,VWS V14.01,2013-04-28 08:51:00,
2013-04-28 04:56:00,54.4,53.3,30.19,ESE,119,0.0,2.0,96,0.00,,OVC100,0.01,VWS V14.01,2013-04-28 08:56:00,
2013-04-28 05:00:00,54.4,53.3,30.19,ESE,119,0.0,2.0,96,0.00,,OVC044,0.01,VWS V14.01,2013-04-28 09:00:00,
2013-04-28 05:02:00,54.3,53.2,30.19,ESE,119,0.0,0.0,96,0.00,,OVC095,0.01,VWS V14.01,2013-04-28 09:02:00,
2013-04-28 05:07:00,54.2,53.1,30.19,ESE,119,0.0,0.0,96,0.00,,OVC095,0.01,VWS V14.01,2013-04-28 09:07:00,
2013-04-28 05:12:00,54.2,53.1,30.19,ESE,119,0.0,0.0,96,0.00,,OVC095,0.01,VWS V14.01,2013-04-28 09:12:00,
2013-04-28 05:17:00,54.2,53.1,30.19,ESE,119,0.0,0.0,96,0.00,,OVC095,0.01,VWS V14.01,2013-04-28 09:17:00,
2013-04-28 05:22:00,54.2,53.1,30.20,ESE,119,0.0,0.0,96,0.00,,OVC095,0.01,VWS V14.01,2013-04-28 09:22:00,
2013-04-28 05:27:00,54.2,53.1,30.20,ESE,119,0.0,0.0,96,0.00,,OVC095,0.01,VWS V14.01,2013-04-28 09:27:00,
2013-04-28 05:30:00,54.2,53.1,30.19,ESE,119,0.0,0.0,96,0.00,,OVC044,0.01,VWS V14.01,2013-04-28 09:30:00,
2013-04-28 05:32:00,54.2,53.1,30.19,ESE,119,0.0,0.0,96,0.00,,OVC095,0.01,VWS V14.01,2013-04-28 09:32:00,
2013-04-28 05:37:00,54.2,53.1,30.19,ESE,119,0.0,0.0,96,0.00,,OVC095,0.01,VWS V14.01,2013-04-28 09:37:00,
2013-04-28 05:42:00,54.3,53.2,30.19,ESE,119,0.0,0.0,96,0.01,,OVC095,0.02,VWS V14.01,2013-04-28 09:42:00,
2013-04-28 05:47:00,54.3,53.2,30.19,ESE,119,0.0,0.0,96,0.01,,OVC095,0.02,VWS V14.01,2013-04-28 09:47:00,
2013-04-28 05:52:00,54.3,53.5,30.19,ESE,119,0.0,0.0,97,0.01,,OVC095,0.02,VWS V14.01,2013-04-28 09:52:00,
2013-04-28 05:57:00,54.3,53.5,30.20,ESE,119,0.0,0.0,97,0.01,,OVC095,0.02,VWS V14.01,2013-04-28 09:57:00,
2013-04-28 06:00:00,54.3,53.5,30.20,ESE,119,0.0,0.0,97,0.01,,OVC044,0.02,VWS V14.01,2013-04-28 10:00:00,
2013-04-28 06:02:00,54.4,53.6,30.20,ESE,119,0.0,0.0,97,0.01,,,0.02,VWS V14.01,2013-04-28 10:02:00,
2013-04-28 06:07:00,54.3,53.5,30.20,ESE,119,0.0,0.0,97,0.02,,,0.03,VWS V14.01,2013-04-28 10:07:00,
2013-04-28 06:12:00,54.4,53.6,30.20,ESE,119,0.0,0.0,97,0.02,,,0.03,VWS V14.01,2013-04-28 10:12:00,
2013-04-28 06:17:00,54.3,53.5,30.20,ESE,119,0.0,0.0,97,0.02,,,0.03,VWS V14.01,2013-04-28 10:17:00,
2013-04-28 06:22:00,54.2,53.1,30.20,ESE,119,0.0,0.0,96,0.02,,,0.03,VWS V14.01,2013-04-28 10:22:00,
2013-04-28 06:27:00,54.1,53.0,30.20,ESE,119,0.0,1.0,96,0.02,,,0.03,VWS V14.01,2013-04-28 10:27:00,
2013-04-28 06:30:00,54.1,53.3,30.20,ESE,119,0.0,1.0,97,0.02,,OVC044,0.03,VWS V14.01,2013-04-28 10:30:00,
2013-04-28 06:32:00,54.2,53.4,30.20,ESE,119,0.0,0.0,97,0.03,,,0.04,VWS V14.01,2013-04-28 10:32:00,
2013-04-28 06:37:00,54.2,53.4,30.20,ESE,119,0.0,2.0,97,0.03,,,0.04,VWS V14.01,2013-04-28 10:37:00,
2013-04-28 06:42:00,54.2,53.4,30.20,ESE,123,0.0,2.0,97,0.03,,,0.04,VWS V14.01,2013-04-28 10:42:00,
2013-04-28 06:47:00,54.3,53.5,30.20,SE,140,1.0,3.0,97,0.03,,,0.04,VWS V14.01,2013-04-28 10:47:00,
2013-04-28 06:52:00,54.4,53.6,30.20,South,175,4.0,6.0,97,0.03,,,0.04,VWS V14.01,2013-04-28 10:52:00,
2013-04-28 06:57:00,54.4,53.3,30.21,SE,138,0.0,6.0,96,0.03,,,0.04,VWS V14.01,2013-04-28 10:57:00,
2013-04-28 07:00:00,54.4,53.0,30.20,SE,132,2.0,6.0,95,0.03,,OVC044,0.04,VWS V14.01,2013-04-28 11:00:00,
2013-04-28 07:02:00,54.4,53.0,30.21,SSE,155,0.0,3.0,95,0.02,,-RA,0.04,VWS V14.01,2013-04-28 11:02:00,
2013-04-28 07:07:00,54.4,53.0,30.21,SSE,155,0.0,3.0,95,0.02,,-RA,0.04,VWS V14.01,2013-04-28 11:07:00,
2013-04-28 07:12:00,54.4,52.7,30.21,SE,142,0.0,3.0,94,0.02,,-RA,0.04,VWS V14.01,2013-04-28 11:12:00,
2013-04-28 07:17:00,54.3,52.6,30.22,SE,142,0.0,3.0,94,0.02,,-RA,0.04,VWS V14.01,2013-04-28 11:17:00,
2013-04-28 07:22:00,54.3,52.9,30.22,SE,144,0.0,3.0,95,0.02,,-RA,0.04,VWS V14.01,2013-04-28 11:22:00,
2013-04-28 07:27:00,54.3,52.9,30.21,ESE,121,2.0,3.0,95,0.02,,-RA,0.04,VWS V14.01,2013-04-28 11:27:00,
2013-04-28 07:30:00,54.2,52.8,30.21,ESE,105,2.0,3.0,95,0.02,,OVC044,0.04,VWS V14.01,2013-04-28 11:30:00,
2013-04-28 07:32:00,54.2,52.8,30.21,ESE,111,1.0,4.0,95,0.01,,-RA,0.04,VWS V14.01,2013-04-28 11:32:00,
2013-04-28 07:37:00,54.1,52.7,30.21,SE,142,2.0,4.0,95,0.01,,-RA,0.04,VWS V14.01,2013-04-28 11:37:00,
2013-04-28 07:42:00,54.2,52.5,30.21,ESE,108,3.0,4.0,94,0.01,,-RA,0.04,VWS V14.01,2013-04-28 11:42:00,
2013-04-28 07:47:00,54.3,52.6,30.21,ESE,102,2.0,4.0,94,0.01,,-RA,0.04,VWS V14.01,2013-04-28 11:47:00,
2013-04-28 07:52:00,54.3,52.3,30.20,ESE,115,7.0,7.0,93,0.01,,-RA,0.04,VWS V14.01,2013-04-28 11:52:00,
2013-04-28 07:57:00,54.4,52.4,30.20,ESE,103,4.0,8.0,93,0.01,,-RA,0.04,VWS V14.01,2013-04-28 11:57:00,
2013-04-28 08:00:00,54.5,52.2,30.20,ESE,118,2.0,8.0,92,0.01,,OVC044,0.04,VWS V14.01,2013-04-28 12:00:00,
2013-04-28 08:02:00,54.5,52.2,30.20,East,86,2.0,5.0,92,0.00,,-RA,0.04,VWS V14.01,2013-04-28 12:02:00,
2013-04-28 08:07:00,54.5,52.2,30.20,East,84,3.0,6.0,92,0.00,,-RA,0.04,VWS V14.01,2013-04-28 12:07:00,
2013-04-28 08:12:00,54.4,52.4,30.21,East,86,3.0,7.0,93,0.00,,-RA,0.04,VWS V14.01,2013-04-28 12:12:00,
2013-04-28 08:17:00,54.5,52.8,30.20,East,81,1.0,7.0,94,0.00,,-RA,0.04,VWS V14.01,2013-04-28 12:17:00,
2013-04-28 08:22:00,54.6,53.2,30.20,East,90,1.0,7.0,95,0.00,,-RA,0.04,VWS V14.01,2013-04-28 12:22:00,
2013-04-28 08:27:00,54.7,53.3,30.21,SE,134,0.0,7.0,95,0.00,,-RA,0.04,VWS V14.01,2013-04-28 12:27:00,
2013-04-28 08:30:00,54.8,53.4,30.21,SE,125,2.0,7.0,95,0.00,,OVC044,0.04,VWS V14.01,2013-04-28 12:30:00,
2013-04-28 08:32:00,54.8,53.4,30.22,SE,128,0.0,5.0,95,0.00,,-RA,0.04,VWS V14.01,2013-04-28 12:32:00,
2013-04-28 08:37:00,54.8,53.4,30.22,SSE,162,0.0,5.0,95,0.00,,-RA,0.04,VWS V14.01,2013-04-28 12:37:00,
2013-04-28 08:42:00,54.9,53.5,30.22,SSE,162,1.0,5.0,95,0.00,,-RA,0.04,VWS V14.01,2013-04-28 12:42:00,
2013-04-28 08:47:00,54.9,53.5,30.22,SSE,162,0.0,5.0,95,0.00,,-RA,0.04,VWS V14.01,2013-04-28 12:47:00,
2013-04-28 08:52:00,54.9,53.5,30.22,ESE,103,1.0,5.0,95,0.00,,-RA,0.04,VWS V14.01,2013-04-28 12:52:00,
2013-04-28 08:57:00,54.9,53.5,30.22,SE,132,3.0,5.0,95,0.00,,-RA,0.04,VWS V14.01,2013-04-28 12:57:00,
2013-04-28 09:00:00,54.9,53.5,30.22,ESE,123,3.0,5.0,95,0.00,,OVC044,0.04,VWS V14.01,2013-04-28 13:00:00,
2013-04-28 09:02:00,54.9,53.2,30.21,ESE,107,1.0,5.0,94,0.00,,,0.04,VWS V14.01,2013-04-28 13:02:00,
2013-04-28 09:07:00,54.9,53.2,30.21,SE,131,0.0,5.0,94,0.00,,,0.04,VWS V14.01,2013-04-28 13:07:00,
2013-04-28 09:12:00,54.9,53.2,30.21,SSE,167,1.0,5.0,94,0.00,,,0.04,VWS V14.01,2013-04-28 13:12:00,
2013-04-28 09:17:00,55.0,53.3,30.21,ESE,116,2.0,5.0,94,0.00,,,0.04,VWS V14.01,2013-04-28 13:17:00,
2013-04-28 09:22:00,55.0,53.0,30.21,SE,134,0.0,5.0,93,0.00,,,0.04,VWS V14.01,2013-04-28 13:22:00,
2013-04-28 09:27:00,55.1,53.1,30.21,ESE,103,1.0,5.0,93,0.00,,,0.04,VWS V14.01,2013-04-28 13:27:00,
2013-04-28 09:30:00,55.1,53.1,30.21,SE,125,4.0,5.0,93,0.00,,OVC044,0.04,VWS V14.01,2013-04-28 13:30:00,
2013-04-28 09:32:00,55.1,52.8,30.21,SE,129,3.0,4.0,92,0.00,,,0.04,VWS V14.01,2013-04-28 13:32:00,
2013-04-28 09:37:00,55.2,52.6,30.21,SSE,155,0.0,4.0,91,0.00,,,0.04,VWS V14.01,2013-04-28 13:37:00,
2013-04-28 09:42:00,55.3,52.7,30.21,East,92,0.0,4.0,91,0.00,,,0.04,VWS V14.01,2013-04-28 13:42:00,
2013-04-28 09:47:00,55.3,52.7,30.21,ESE,112,0.0,4.0,91,0.00,,,0.04,VWS V14.01,2013-04-28 13:47:00,
2013-04-28 09:52:00,55.3,52.4,30.22,SE,144,0.0,4.0,90,0.00,,,0.04,VWS V14.01,2013-04-28 13:52:00,
2013-04-28 09:57:00,55.4,52.8,30.22,SE,144,0.0,4.0,91,0.00,,,0.04,VWS V14.01,2013-04-28 13:57:00,
2013-04-28 10:00:00,55.4,52.8,30.22,SE,144,0.0,4.0,91,0.00,,OVC044,0.04,VWS V14.01,2013-04-28 14:00:00,
2013-04-28 10:02:00,55.4,52.8,30.22,South,179,0.0,3.0,91,0.00,,OVC065,0.04,VWS V14.01,2013-04-28 14:02:00,
2013-04-28 10:07:00,55.5,52.9,30.22,South,188,3.0,4.0,91,0.00,,OVC065,0.04,VWS V14.01,2013-04-28 14:07:00,
2013-04-28 10:12:00,55.5,52.6,30.22,SSE,167,0.0,4.0,90,0.00,,OVC065,0.04,VWS V14.01,2013-04-28 14:12:00,
2013-04-28 10:17:00,55.6,53.0,30.22,South,169,0.0,4.0,91,0.00,,OVC065,0.04,VWS V14.01,2013-04-28 14:17:00,
2013-04-28 10:22:00,55.7,52.8,30.22,SSW,213,2.0,6.0,90,0.00,,OVC065,0.04,VWS V14.01,2013-04-28 14:22:00,
2013-04-28 10:27:00,55.7,52.8,30.22,South,178,0.0,6.0,90,0.00,,OVC065,0.04,VWS V14.01,2013-04-28 14:27:00,
2013-04-28 10:30:00,55.7,53.1,30.22,South,178,0.0,6.0,91,0.00,,OVC044,0.04,VWS V14.01,2013-04-28 14:30:00,
2013-04-28 10:32:00,55.8,52.9,30.22,South,178,0.0,0.0,90,0.00,,OVC065,0.04,VWS V14.01,2013-04-28 14:32:00,
2013-04-28 10:37:00,55.8,53.2,30.22,South,175,0.0,2.0,91,0.00,,OVC065,0.04,VWS V14.01,2013-04-28 14:37:00,
2013-04-28 10:42:00,55.9,53.3,30.22,South,175,0.0,2.0,91,0.00,,OVC065,0.04,VWS V14.01,2013-04-28 14:42:00,
2013-04-28 10:47:00,55.8,53.2,30.22,South,175,0.0,2.0,91,0.01,,OVC065,0.05,VWS V14.01,2013-04-28 14:47:00,
2013-04-28 10:52:00,55.9,53.6,30.22,South,175,0.0,2.0,92,0.01,,OVC065,0.05,VWS V14.01,2013-04-28 14:52:00,
2013-04-28 10:57:00,55.9,53.6,30.22,South,175,0.0,2.0,92,0.01,,OVC065,0.05,VWS V14.01,2013-04-28 14:57:00,
2013-04-28 11:00:00,55.9,53.6,30.22,South,175,0.0,2.0,92,0.01,,OVC044,0.05,VWS V14.01,2013-04-28 15:00:00,
2013-04-28 11:02:00,55.9,53.6,30.22,South,175,0.0,0.0,92,0.01,,OVC065,0.05,VWS V14.01,2013-04-28 15:02:00,
2013-04-28 11:07:00,55.9,53.9,30.22,South,175,0.0,0.0,93,0.02,,OVC065,0.06,VWS V14.01,2013-04-28 15:07:00,
2013-04-28 11:12:00,55.9,53.9,30.22,South,175,0.0,0.0,93,0.02,,OVC065,0.06,VWS V14.01,2013-04-28 15:12:00,
2013-04-28 11:17:00,55.9,53.9,30.22,South,175,0.0,0.0,93,0.02,,OVC065,0.06,VWS V14.01,2013-04-28 15:17:00,
2013-04-28 11:22:00,55.9,53.3,30.22,South,175,0.0,0.0,91,0.02,,OVC065,0.06,VWS V14.01,2013-04-28 15:22:00,
2013-04-28 11:27:00,55.9,53.3,30.22,South,174,0.0,1.0,91,0.02,,OVC065,0.06,VWS V14.01,2013-04-28 15:27:00,
2013-04-28 11:30:00,55.9,53.3,30.22,South,174,0.0,1.0,91,0.02,,OVC044,0.06,VWS V14.01,2013-04-28 15:30:00,
2013-04-28 11:32:00,55.9,52.7,30.22,South,174,0.0,0.0,89,0.02,,OVC065,0.06,VWS V14.01,2013-04-28 15:32:00,
2013-04-28 11:37:00,55.9,53.0,30.23,South,173,0.0,2.0,90,0.02,,OVC065,0.06,VWS V14.01,2013-04-28 15:37:00,
2013-04-28 11:42:00,55.9,53.3,30.22,SSE,147,0.0,2.0,91,0.03,,OVC065,0.07,VWS V14.01,2013-04-28 15:42:00,
2013-04-28 11:47:00,56.0,54.0,30.22,SE,127,1.0,2.0,93,0.03,,OVC065,0.07,VWS V14.01,2013-04-28 15:47:00,
2013-04-28 11:52:00,56.0,53.7,30.22,SE,126,3.0,6.0,92,0.03,,OVC065,0.07,VWS V14.01,2013-04-28 15:52:00,
2013-04-28 11:57:00,55.9,53.9,30.21,East,80,0.0,6.0,93,0.03,,OVC065,0.07,VWS V14.01,2013-04-28 15:57:00,
2013-04-28 12:00:00,55.9,53.9,30.21,East,85,1.0,6.0,93,0.03,,OVC044,0.07,VWS V14.01,2013-04-28 16:00:00,
2013-04-28 12:02:00,55.9,53.9,30.21,East,85,0.0,1.0,93,0.03,,OVC070,0.08,VWS V14.01,2013-04-28 16:02:00,
2013-04-28 12:07:00,56.0,54.3,30.21,ESE,119,0.0,3.0,94,0.03,,OVC070,0.08,VWS V14.01,2013-04-28 16:07:00,
2013-04-28 12:12:00,55.9,54.2,30.21,ENE,75,1.0,5.0,94,0.04,,OVC070,0.09,VWS V14.01,2013-04-28 16:12:00,
2013-04-28 12:17:00,55.8,54.1,30.21,East,94,0.0,5.0,94,0.04,,OVC070,0.09,VWS V14.01,2013-04-28 16:17:00,
2013-04-28 12:22:00,55.8,54.1,30.20,East,80,3.0,6.0,94,0.04,,OVC070,0.09,VWS V14.01,2013-04-28 16:22:00,
2013-04-28 12:27:00,55.4,53.1,30.20,East,101,3.0,7.0,92,0.04,,OVC070,0.09,VWS V14.01,2013-04-28 16:27:00,
2013-04-28 12:30:00,55.2,52.6,30.20,ESE,109,1.0,8.0,91,0.04,,OVC044,0.09,VWS V14.01,2013-04-28 16:30:00,
2013-04-28 12:32:00,55.1,52.8,30.21,ESE,113,3.0,5.0,92,0.03,,OVC070,0.09,VWS V14.01,2013-04-28 16:32:00,
2013-04-28 12:37:00,55.0,53.0,30.21,SSE,147,0.0,5.0,93,0.03,,OVC070,0.09,VWS V14.01,2013-04-28 16:37:00,
2013-04-28 12:42:00,55.0,53.0,30.21,East,92,3.0,5.0,93,0.03,,OVC070,0.09,VWS V14.01,2013-04-28 16:42:00,
2013-04-28 12:47:00,55.0,53.3,30.20,East,89,2.0,5.0,94,0.03,,OVC070,0.09,VWS V14.01,2013-04-28 16:47:00,
2013-04-28 12:52:00,55.0,53.3,30.20,ESE,115,1.0,5.0,94,0.03,,OVC070,0.09,VWS V14.01,2013-04-28 16:52:00,
2013-04-28 12:57:00,55.0,53.3,30.20,SE,144,4.0,5.0,94,0.03,,OVC070,0.09,VWS V14.01,2013-04-28 16:57:00,
2013-04-28 13:00:00,54.8,52.2,30.20,ESE,109,0.0,7.0,91,0.03,,OVC044,0.09,VWS V14.01,2013-04-28 17:00:00,
2013-04-28 13:02:00,54.7,52.4,30.20,ESE,102,2.0,6.0,92,0.02,,-RA,0.09,VWS V14.01,2013-04-28 17:02:00,
2013-04-28 13:07:00,54.6,52.0,30.20,SE,139,3.0,7.0,91,0.03,,-RA,0.10,VWS V14.01,2013-04-28 17:07:00,
2013-04-28 13:12:00,54.5,52.2,30.20,East,94,3.0,7.0,92,0.03,,-RA,0.10,VWS V14.01,2013-04-28 17:12:00,
2013-04-28 13:17:00,54.4,52.4,30.20,ENE,70,2.0,7.0,93,0.04,,-RA,0.11,VWS V14.01,2013-04-28 17:17:00,
2013-04-28 13:22:00,54.3,52.3,30.20,ESE,121,0.0,7.0,93,0.05,,-RA,0.12,VWS V14.01,2013-04-28 17:22:00,
2013-04-28 13:27:00,54.1,52.1,30.20,SE,129,3.0,7.0,93,0.06,,-RA,0.13,VWS V14.01,2013-04-28 17:27:00,
2013-04-28 13:30:00,54.1,52.1,30.20,East,94,2.0,7.0,93,0.06,,OVC044,0.13,VWS V14.01,2013-04-28 17:30:00,
2013-04-28 13:32:00,53.9,51.6,30.20,SE,141,0.0,3.0,92,0.05,,-RA,0.14,VWS V14.01,2013-04-28 17:32:00,
2013-04-28 13:37:00,53.9,51.9,30.20,SE,142,2.0,5.0,93,0.06,,-RA,0.15,VWS V14.01,2013-04-28 17:37:00,
2013-04-28 13:42:00,53.7,51.7,30.21,SW,226,3.0,5.0,93,0.07,,-RA,0.16,VWS V14.01,2013-04-28 17:42:00,
2013-04-28 13:47:00,53.5,51.5,30.21,SE,142,2.0,6.0,93,0.08,,-RA,0.17,VWS V14.01,2013-04-28 17:47:00,
2013-04-28 13:52:00,53.3,51.6,30.20,South,177,0.0,6.0,94,0.09,,-RA,0.18,VWS V14.01,2013-04-28 17:52:00,
2013-04-28 13:57:00,53.2,51.5,30.21,SSW,199,1.0,6.0,94,0.10,,-RA,0.19,VWS V14.01,2013-04-28 17:57:00,
2013-04-28 14:00:00,53.2,51.5,30.21,South,191,3.0,6.0,94,0.11,,OVC044,0.20,VWS V14.01,2013-04-28 18:00:00,
2013-04-28 14:02:00,53.2,51.8,30.21,South,191,1.0,3.0,95,0.11,,-RA,0.20,VWS V14.01,2013-04-28 18:02:00,
2013-04-28 14:07:00,53.1,51.4,30.20,SSW,211,2.0,4.0,94,0.11,,-RA,0.20,VWS V14.01,2013-04-28 18:07:00,
2013-04-28 14:12:00,53.1,51.4,30.21,SSW,211,2.0,4.0,94,0.11,,-RA,0.20,VWS V14.01,2013-04-28 18:12:00,
2013-04-28 14:17:00,53.0,51.3,30.21,SW,222,1.0,4.0,94,0.12,,-RA,0.21,VWS V14.01,2013-04-28 18:17:00,
2013-04-28 14:22:00,52.9,51.2,30.21,SW,222,2.0,4.0,94,0.12,,-RA,0.21,VWS V14.01,2013-04-28 18:22:00,
2013-04-28 14:27:00,52.8,51.1,30.21,SSW,211,1.0,4.0,94,0.13,,-RA,0.22,VWS V14.01,2013-04-28 18:27:00,
2013-04-28 14:30:00,52.8,51.1,30.21,SSW,204,2.0,4.0,94,0.13,,OVC044,0.22,VWS V14.01,2013-04-28 18:30:00,
2013-04-28 14:32:00,52.8,51.1,30.21,South,191,0.0,2.0,94,0.10,,-RA,0.23,VWS V14.01,2013-04-28 18:32:00,
2013-04-28 14:37:00,52.7,51.0,30.21,SSE,165,0.0,3.0,94,0.11,,-RA,0.24,VWS V14.01,2013-04-28 18:37:00,
2013-04-28 14:42:00,52.6,50.9,30.20,SE,142,1.0,3.0,94,0.12,,-RA,0.25,VWS V14.01,2013-04-28 18:42:00,
2013-04-28 14:47:00,52.6,50.9,30.20,SE,142,1.0,3.0,94,0.13,,-RA,0.26,VWS V14.01,2013-04-28 18:47:00,
2013-04-28 14:52:00,52.8,51.4,30.20,ESE,116,3.0,3.0,95,0.14,,-RA,0.27,VWS V14.01,2013-04-28 18:52:00,
2013-04-28 14:57:00,52.8,51.1,30.19,SE,136,4.0,5.0,94,0.14,,-RA,0.27,VWS V14.01,2013-04-28 18:57:00,
2013-04-28 15:00:00,52.8,51.1,30.19,ESE,105,0.0,5.0,94,0.15,,OVC044,0.28,VWS V14.01,2013-04-28 19:00:00,
2013-04-28 15:02:00,52.9,51.5,30.19,SE,140,1.0,3.0,95,0.08,,-RA,0.28,VWS V14.01,2013-04-28 19:02:00,
2013-04-28 15:07:00,53.0,51.6,30.18,SE,137,3.0,6.0,95,0.09,,-RA,0.29,VWS V14.01,2013-04-28 19:07:00,
2013-04-28 15:12:00,52.9,51.5,30.18,ESE,111,5.0,8.0,95,0.09,,-RA,0.29,VWS V14.01,2013-04-28 19:12:00,
2013-04-28 15:17:00,53.0,51.6,30.18,SE,129,2.0,8.0,95,0.10,,-RA,0.30,VWS V14.01,2013-04-28 19:17:00,
2013-04-28 15:22:00,53.1,51.7,30.18,ESE,119,5.0,8.0,95,0.11,,-RA,0.31,VWS V14.01,2013-04-28 19:22:00,
2013-04-28 15:27:00,53.2,51.8,30.17,ESE,112,2.0,8.0,95,0.11,,-RA,0.31,VWS V14.01,2013-04-28 19:27:00,
2013-04-28 15:30:00,53.3,52.2,30.17,SE,135,1.0,8.0,96,0.11,,OVC044,0.31,VWS V14.01,2013-04-28 19:30:00,
2013-04-28 15:32:00,53.2,51.8,30.17,SE,128,0.0,5.0,95,0.10,,-RA,0.32,VWS V14.01,2013-04-28 19:32:00,
2013-04-28 15:37:00,53.2,51.8,30.17,ESE,103,3.0,5.0,95,0.11,,-RA,0.33,VWS V14.01,2013-04-28 19:37:00,
2013-04-28 15:42:00,53.2,52.1,30.17,SE,139,8.0,9.0,96,0.12,,-RA,0.34,VWS V14.01,2013-04-28 19:42:00,
2013-04-28 15:47:00,53.1,52.0,30.17,ESE,123,4.0,9.0,96,0.13,,-RA,0.35,VWS V14.01,2013-04-28 19:47:00,
2013-04-28 15:53:00,53.1,52.0,30.17,ESE,115,2.0,9.0,96,0.13,,-RA,0.35,VWS V14.01,2013-04-28 19:53:00,
2013-04-28 15:58:00,53.2,52.1,30.16,SE,127,6.0,9.0,96,0.14,,-RA,0.36,VWS V14.01,2013-04-28 19:58:00,
2013-04-28 16:00:00,53.2,52.1,30.16,East,97,3.0,9.0,96,0.14,,OVC044,0.36,VWS V14.01,2013-04-28 20:00:00,
2013-04-28 16:03:00,53.3,52.2,30.16,SE,127,1.0,4.0,96,0.09,,-RA,0.37,VWS V14.01,2013-04-28 20:03:00,
2013-04-28 16:08:00,53.3,52.2,30.16,East,95,2.0,7.0,96,0.09,,-RA,0.37,VWS V14.01,2013-04-28 20:08:00,
2013-04-28 16:13:00,53.4,52.3,30.15,SE,132,3.0,9.0,96,0.10,,-RA,0.38,VWS V14.01,2013-04-28 20:13:00,
2013-04-28 16:18:00,53.5,52.4,30.15,SE,139,6.0,9.0,96,0.10,,-RA,0.38,VWS V14.01,2013-04-28 20:18:00,
2013-04-28 16:23:00,53.5,52.4,30.15,East,96,0.0,9.0,96,0.11,,-RA,0.39,VWS V14.01,2013-04-28 20:23:00,
2013-04-28 16:28:00,53.5,52.4,30.15,ESE,103,2.0,9.0,96,0.11,,-RA,0.39,VWS V14.01,2013-04-28 20:28:00,
2013-04-28 16:30:00,53.6,52.5,30.15,SE,146,4.0,9.0,96,0.11,,OVC044,0.39,VWS V14.01,2013-04-28 20:30:00,
2013-04-28 16:33:00,53.5,52.4,30.15,SE,136,3.0,5.0,96,0.08,,-RA,0.39,VWS V14.01,2013-04-28 20:33:00,
2013-04-28 16:38:00,53.5,52.4,30.15,East,96,2.0,7.0,96,0.09,,-RA,0.40,VWS V14.01,2013-04-28 20:38:00,
2013-04-28 16:43:00,53.5,52.4,30.15,ESE,120,1.0,7.0,96,0.10,,-RA,0.41,VWS V14.01,2013-04-28 20:43:00,
2013-04-28 16:48:00,53.5,52.4,30.15,ESE,121,5.0,7.0,96,0.11,,-RA,0.42,VWS V14.01,2013-04-28 20:48:00,
2013-04-28 16:53:00,53.5,52.4,30.15,South,179,0.0,7.0,96,0.11,,-RA,0.42,VWS V14.01,2013-04-28 20:53:00,
2013-04-28 16:58:00,53.6,52.5,30.15,ESE,121,1.0,7.0,96,0.12,,-RA,0.43,VWS V14.01,2013-04-28 20:58:00,
2013-04-28 17:00:00,53.6,52.5,30.14,ESE,121,0.0,7.0,96,0.12,,OVC044,0.43,VWS V14.01,2013-04-28 21:00:00,
2013-04-28 17:03:00,53.7,52.6,30.14,SE,140,0.0,3.0,96,0.07,,-RA,0.43,VWS V14.01,2013-04-28 21:03:00,
2013-04-28 17:08:00,53.7,52.6,30.14,SE,135,0.0,5.0,96,0.08,,-RA,0.44,VWS V14.01,2013-04-28 21:08:00,
2013-04-28 17:13:00,53.7,52.6,30.14,ESE,120,2.0,5.0,96,0.08,,-RA,0.44,VWS V14.01,2013-04-28 21:13:00,
2013-04-28 17:18:00,53.7,52.6,30.14,ESE,112,3.0,8.0,96,0.09,,-RA,0.45,VWS V14.01,2013-04-28 21:18:00,
2013-04-28 17:23:00,53.8,52.7,30.14,SE,140,1.0,8.0,96,0.09,,-RA,0.45,VWS V14.01,2013-04-28 21:23:00,
2013-04-28 17:28:00,53.8,52.7,30.14,SE,132,2.0,8.0,96,0.09,,-RA,0.45,VWS V14.01,2013-04-28 21:28:00,
2013-04-28 17:30:00,53.8,52.7,30.14,SE,126,0.0,8.0,96,0.09,,OVC044,0.45,VWS V14.01,2013-04-28 21:30:00,
2013-04-28 17:33:00,53.8,52.7,30.13,ESE,107,0.0,2.0,96,0.06,,-RA,0.45,VWS V14.01,2013-04-28 21:33:00,
2013-04-28 17:38:00,53.8,52.7,30.13,ESE,115,1.0,5.0,96,0.06,,-RA,0.45,VWS V14.01,2013-04-28 21:38:00,
2013-04-28 17:43:00,53.8,52.7,30.13,SE,130,1.0,5.0,96,0.07,,-RA,0.46,VWS V14.01,2013-04-28 21:43:00,
2013-04-28 17:48:00,53.8,52.7,30.13,SE,126,2.0,5.0,96,0.07,,-RA,0.46,VWS V14.01,2013-04-28 21:48:00,
2013-04-28 17:53:00,53.8,52.7,30.13,ESE,121,1.0,5.0,96,0.07,,-RA,0.46,VWS V14.01,2013-04-28 21:53:00,
2013-04-28 17:58:00,53.7,52.6,30.13,SE,133,1.0,5.0,96,0.08,,-RA,0.47,VWS V14.01,2013-04-28 21:58:00,
2013-04-28 18:00:00,53.7,52.6,30.13,ESE,107,3.0,5.0,96,0.08,,OVC044,0.47,VWS V14.01,2013-04-28 22:00:00,
2013-04-28 18:03:00,53.7,52.6,30.13,ESE,114,0.0,7.0,96,0.04,,-RA,0.47,VWS V14.01,2013-04-28 22:03:00,
2013-04-28 18:08:00,53.6,52.5,30.13,SE,126,7.0,7.0,96,0.04,,-RA,0.47,VWS V14.01,2013-04-28 22:08:00,
2013-04-28 18:13:00,53.6,52.5,30.13,East,95,2.0,7.0,96,0.05,,-RA,0.48,VWS V14.01,2013-04-28 22:13:00,
2013-04-28 18:18:00,53.6,52.5,30.12,SSE,147,5.0,7.0,96,0.05,,-RA,0.48,VWS V14.01,2013-04-28 22:18:00,
2013-04-28 18:23:00,53.6,52.5,30.12,SE,140,3.0,7.0,96,0.06,,-RA,0.49,VWS V14.01,2013-04-28 22:23:00,
2013-04-28 18:28:00,53.6,52.5,30.12,SE,132,0.0,7.0,96,0.06,,-RA,0.49,VWS V14.01,2013-04-28 22:28:00,
2013-04-28 18:30:00,53.6,52.5,30.12,ESE,103,2.0,7.0,96,0.06,,OVC044,0.49,VWS V14.01,2013-04-28 22:30:00,
2013-04-28 18:33:00,53.6,52.5,30.11,SE,135,0.0,7.0,96,0.04,,-RA,0.49,VWS V14.01,2013-04-28 22:33:00,
2013-04-28 18:38:00,53.6,52.5,30.11,ESE,110,2.0,7.0,96,0.05,,-RA,0.50,VWS V14.01,2013-04-28 22:38:00,
2013-04-28 18:43:00,53.6,52.5,30.11,ESE,113,3.0,7.0,96,0.05,,-RA,0.50,VWS V14.01,2013-04-28 22:43:00,
2013-04-28 18:48:00,53.6,52.5,30.10,ESE,105,5.0,9.0,96,0.06,,-RA,0.51,VWS V14.01,2013-04-28 22:48:00,
2013-04-28 18:53:00,53.6,52.5,30.11,SSE,149,6.0,9.0,96,0.06,,-RA,0.51,VWS V14.01,2013-04-28 22:53:00,
2013-04-28 18:58:00,53.5,52.4,30.10,SSE,161,5.0,11.0,96,0.06,,-RA,0.51,VWS V14.01,2013-04-28 22:58:00,
2013-04-28 19:00:00,53.5,52.4,30.10,ESE,123,1.0,11.0,96,0.06,,OVC044,0.51,VWS V14.01,2013-04-28 23:00:00,
2013-04-28 19:03:00,53.5,52.4,30.10,SE,134,5.0,9.0,96,0.04,,-RA,0.51,VWS V14.01,2013-04-28 23:03:00,
2013-04-28 19:08:00,53.5,52.4,30.10,ESE,113,3.0,10.0,96,0.05,,-RA,0.52,VWS V14.01,2013-04-28 23:08:00,
2013-04-28 19:14:00,53.4,52.3,30.09,SE,139,3.0,10.0,96,0.05,,-RA,0.52,VWS V14.01,2013-04-28 23:14:00,
2013-04-28 19:18:00,53.4,52.3,30.08,ESE,122,7.0,10.0,96,0.06,,-RA,0.53,VWS V14.01,2013-04-28 23:18:00,
2013-04-28 19:23:00,53.4,52.3,30.08,ESE,110,3.0,12.0,96,0.06,,-RA,0.53,VWS V14.01,2013-04-28 23:23:00,
2013-04-28 19:28:00,53.3,52.2,30.07,South,178,6.0,14.0,96,0.06,,-RA,0.53,VWS V14.01,2013-04-28 23:28:00,
2013-04-28 19:30:00,53.3,52.2,30.07,ESE,119,4.0,15.0,96,0.06,,OVC044,0.53,VWS V14.01,2013-04-28 23:30:00,
2013-04-28 19:34:00,53.3,52.2,30.07,ESE,111,5.0,15.0,96,0.05,,-RA,0.54,VWS V14.01,2013-04-28 23:34:00,
2013-04-28 19:39:00,53.3,52.2,30.07,East,98,2.0,15.0,96,0.05,,-RA,0.54,VWS V14.01,2013-04-28 23:39:00,
2013-04-28 19:44:00,53.3,52.2,30.08,NE,47,4.0,15.0,96,0.05,,-RA,0.54,VWS V14.01,2013-04-28 23:44:00,
2013-04-28 19:49:00,53.3,52.5,30.09,ESE,115,1.0,15.0,97,0.06,,-RA,0.55,VWS V14.01,2013-04-28 23:49:00,
2013-04-28 19:54:00,53.3,52.5,30.08,South,172,3.0,15.0,97,0.06,,-RA,0.55,VWS V14.01,2013-04-28 23:54:00,
2013-04-28 19:59:00,53.3,52.2,30.08,ESE,119,1.0,15.0,96,0.06,,-RA,0.55,VWS V14.01,2013-04-28 23:59:00,
2013-04-28 20:00:00,53.3,52.2,30.08,ESE,110,0.0,15.0,96,0.06,,OVC044,0.55,VWS V14.01,2013-04-29 00:00:00,
2013-04-28 20:04:00,53.3,52.5,30.09,ENE,76,0.0,9.0,97,0.04,,-RA,0.55,VWS V14.01,2013-04-29 00:04:00,
2013-04-28 20:09:00,53.3,52.5,30.09,SSE,149,4.0,9.0,97,0.04,,-RA,0.55,VWS V14.01,2013-04-29 00:09:00,
2013-04-28 20:14:00,53.3,52.5,30.10,ESE,105,1.0,9.0,97,0.04,,-RA,0.55,VWS V14.01,2013-04-29 00:14:00,
2013-04-28 20:19:00,53.4,52.6,30.09,ESE,117,4.0,9.0,97,0.04,,-RA,0.55,VWS V14.01,2013-04-29 00:19:00,
2013-04-28 20:24:00,53.4,52.3,30.09,SE,145,0.0,9.0,96,0.04,,-RA,0.55,VWS V14.01,2013-04-29 00:24:00,
2013-04-28 20:29:00,53.5,52.4,30.09,SE,127,5.0,9.0,96,0.04,,-RA,0.55,VWS V14.01,2013-04-29 00:29:00,
2013-04-28 20:30:00,53.5,52.4,30.09,SE,134,2.0,9.0,96,0.04,,OVC044,0.55,VWS V14.01,2013-04-29 00:30:00,
2013-04-28 20:34:00,53.5,52.4,30.09,ENE,70,0.0,5.0,96,0.02,,-RA,0.55,VWS V14.01,2013-04-29 00:34:00,
2013-04-28 20:39:00,53.4,52.3,30.09,NNE,30,0.0,5.0,96,0.02,,-RA,0.55,VWS V14.01,2013-04-29 00:39:00,
2013-04-28 20:44:00,53.4,52.3,30.10,NNE,30,0.0,5.0,96,0.02,,-RA,0.55,VWS V14.01,2013-04-29 00:44:00,
2013-04-28 20:49:00,53.4,52.6,30.09,NNE,30,0.0,5.0,97,0.02,,-RA,0.55,VWS V14.01,2013-04-29 00:49:00,
2013-04-28 20:54:00,53.4,52.6,30.09,ENE,63,0.0,5.0,97,0.02,,-RA,0.55,VWS V14.01,2013-04-29 00:54:00,
2013-04-28 20:59:00,53.4,52.6,30.09,ESE,113,1.0,6.0,97,0.02,,-RA,0.55,VWS V14.01,2013-04-29 00:59:00,
2013-04-28 21:00:00,53.4,52.6,30.09,ESE,113,0.0,6.0,97,0.02,,OVC044,0.55,VWS V14.01,2013-04-29 01:00:00,
2013-04-28 21:04:00,53.4,52.6,30.08,SE,130,0.0,3.0,97,0.00,,-RA,0.55,VWS V14.01,2013-04-29 01:04:00,
2013-04-28 21:09:00,53.5,52.4,30.08,East,97,2.0,6.0,96,0.00,,-RA,0.55,VWS V14.01,2013-04-29 01:09:00,
2013-04-28 21:14:00,53.4,52.3,30.07,ENE,74,4.0,8.0,96,0.00,,-RA,0.55,VWS V14.01,2013-04-29 01:14:00,
2013-04-28 21:19:00,53.4,52.3,30.07,East,97,0.0,8.0,96,0.00,,-RA,0.55,VWS V14.01,2013-04-29 01:19:00,
2013-04-28 21:24:00,53.3,52.2,30.08,East,97,0.0,8.0,96,0.00,,-RA,0.55,VWS V14.01,2013-04-29 01:24:00,
2013-04-28 21:29:00,53.3,52.2,30.08,ENE,78,0.0,8.0,96,0.00,,-RA,0.55,VWS V14.01,2013-04-29 01:29:00,
2013-04-28 21:30:00,53.3,52.2,30.08,ENE,78,0.0,8.0,96,0.00,,OVC044,0.55,VWS V14.01,2013-04-29 01:30:00,
2013-04-28 21:34:00,53.3,52.2,30.08,ESE,122,2.0,4.0,96,0.00,,-RA,0.55,VWS V14.01,2013-04-29 01:34:00,
2013-04-28 21:39:00,53.3,52.2,30.08,ESE,121,0.0,4.0,96,0.00,,-RA,0.55,VWS V14.01,2013-04-29 01:39:00,
2013-04-28 21:44:00,53.3,52.2,30.08,ESE,121,0.0,4.0,96,0.00,,-RA,0.55,VWS V14.01,2013-04-29 01:44:00,
2013-04-28 21:49:00,53.2,52.4,30.08,ESE,121,0.0,4.0,97,0.00,,-RA,0.55,VWS V14.01,2013-04-29 01:49:00,
2013-04-28 21:54:00,53.1,52.3,30.08,East,95,1.0,4.0,97,0.00,,-RA,0.55,VWS V14.01,2013-04-29 01:54:00,
2013-04-28 22:00:00,53.1,52.3,30.08,East,92,0.0,0.0,97,0.00,,-RA,0.55,VWS V14.01,2013-04-29 02:00:00,
2013-04-28 22:04:00,53.1,52.3,30.08,East,92,0.0,1.0,97,0.00,,-RA,0.55,VWS V14.01,2013-04-29 02:04:00,
2013-04-28 22:09:00,53.1,52.3,30.08,East,92,0.0,1.0,97,0.00,,-RA,0.55,VWS V14.01,2013-04-29 02:09:00,
2013-04-28 22:15:00,53.1,52.3,30.08,East,92,0.0,1.0,97,0.00,,-RA,0.55,VWS V14.01,2013-04-29 02:15:00,
2013-04-28 22:20:00,53.1,52.3,30.08,East,92,0.0,1.0,97,0.00,,-RA,0.55,VWS V14.01,2013-04-29 02:20:00,
2013-04-28 22:25:00,53.0,52.2,30.08,ENE,62,0.0,2.0,97,0.00,,-RA,0.55,VWS V14.01,2013-04-29 02:25:00,
2013-04-28 22:29:00,53.0,52.2,30.07,East,86,1.0,1.0,97,0.00,,-RA,0.55,VWS V14.01,2013-04-29 02:29:00,
2013-04-28 22:30:00,53.0,52.2,30.07,East,86,1.0,2.0,97,0.00,,OVC044,0.55,VWS V14.01,2013-04-29 02:30:00,
2013-04-28 22:35:00,53.0,52.2,30.07,ENE,71,0.0,6.0,97,0.00,,-RA,0.55,VWS V14.01,2013-04-29 02:35:00,
2013-04-28 22:40:00,53.0,52.2,30.07,ENE,67,0.0,6.0,97,0.00,,-RA,0.55,VWS V14.01,2013-04-29 02:40:00,
2013-04-28 22:45:00,53.0,52.2,30.08,NNE,17,1.0,6.0,97,0.00,,-RA,0.55,VWS V14.01,2013-04-29 02:45:00,
2013-04-28 22:50:00,53.0,52.2,30.08,NNE,18,0.0,6.0,97,0.00,,-RA,0.55,VWS V14.01,2013-04-29 02:50:00,
2013-04-28 22:55:00,53.0,52.2,30.08,East,86,0.0,6.0,97,0.00,,-RA,0.55,VWS V14.01,2013-04-29 02:55:00,
2013-04-28 23:00:00,53.0,52.2,30.07,East,86,0.0,0.0,97,0.01,,-RA,0.56,VWS V14.01,2013-04-29 03:00:00,
2013-04-28 23:05:00,53.0,52.2,30.07,NE,45,0.0,1.0,97,0.01,,-RA,0.56,VWS V14.01,2013-04-29 03:05:00,
2013-04-28 23:10:00,53.0,52.2,30.06,ENE,78,1.0,2.0,97,0.01,,-RA,0.56,VWS V14.01,2013-04-29 03:10:00,
2013-04-28 23:15:00,53.0,52.2,30.06,ENE,61,2.0,3.0,97,0.01,,-RA,0.56,VWS V14.01,2013-04-29 03:15:00,
2013-04-28 23:20:00,53.0,52.2,30.06,NE,45,0.0,4.0,97,0.01,,-RA,0.56,VWS V14.01,2013-04-29 03:20:00,
2013-04-28 23:25:00,53.0,52.2,30.06,NE,45,0.0,4.0,97,0.01,,-RA,0.56,VWS V14.01,2013-04-29 03:25:00,
2013-04-28 23:30:00,53.0,52.5,30.07,ENE,61,0.0,0.0,98,0.01,,-RA,0.56,VWS V14.01,2013-04-29 03:30:00,
2013-04-28 23:35:00,53.0,52.5,30.07,ENE,61,0.0,0.0,98,0.01,,-RA,0.56,VWS V14.01,2013-04-29 03:35:00,
2013-04-28 23:40:00,53.0,52.5,30.06,ESE,107,1.0,3.0,98,0.01,,-RA,0.56,VWS V14.01,2013-04-29 03:40:00,
2013-04-28 23:45:00,53.0,52.5,30.06,NE,55,2.0,5.0,98,0.01,,-RA,0.56,VWS V14.01,2013-04-29 03:45:00,
2013-04-28 23:50:00,53.1,52.3,30.06,NE,55,0.0,5.0,97,0.01,,-RA,0.56,VWS V14.01,2013-04-29 03:50:00,
2013-04-28 23:55:00,53.0,52.5,30.06,NE,54,0.0,5.0,98,0.01,,-RA,0.56,VWS V14.01,2013-04-29 03:55:00,